User: anonymous   Login
Location: Trois-Rivi�res
(46.3500°N, 72.5500°W)
Time: 02:21:15
(UTC-05:00)
Language:

Envisat - Orbit

View from above orbital plane
View from above orbital plane
View from above satellite
View from above satellite

Ground track
Ground track

The orbit data is extracted from the following two-line orbital elements,

1 27386U 02009A   18347.90282389 -.00000008  00000-0  10834-4 0  9990
2 27386  98.1668  13.3204 0001333  91.5768 320.3492 14.37936662879357
Epoch (UTC): 13 December 2018 21:40:03
Eccentricity: 0.0001333
inclination: 98.1668°
perigee height: 764 km
apogee height: 766 km
right ascension of ascending node: 13.3204°
argument of perigee: 91.5768°
revolutions per day: 14.37936662
mean anomaly at epoch: 320.3492°
orbit number at epoch: 87935

The dashed part of the orbit path shows where the satellite is in the earth's shadow,  

DLR